Time,TemperatureF,DewpointF,PressureIn,WindDirection,WindDirectionDegrees,WindSpeedMPH,WindSpeedGustMPH,Humidity,HourlyPrecipIn,Conditions,Clouds,dailyrainin,SoftwareType,DateUTC
2013-03-16 00:02:00,54.2,41.0,30.04,NNE,27,6.0,12.0,62,0.00,,,0.00,weatherlink.com 1.10,2013-03-16 04:02:00,
2013-03-16 00:17:00,55.9,41.0,30.03,North,356,4.0,10.0,58,0.00,,,0.00,weatherlink.com 1.10,2013-03-16 04:17:00,
2013-03-16 00:32:00,56.3,41.0,30.02,NNE,23,3.0,10.0,57,0.00,,,0.00,weatherlink.com 1.10,2013-03-16 04:32:00,
2013-03-16 00:48:00,56.4,41.0,30.02,North,6,3.0,15.0,56,0.00,,,0.00,weatherlink.com 1.10,2013-03-16 04:48:00,
2013-03-16 01:03:00,56.3,41.0,30.01,NNE,18,6.0,12.0,56,0.00,,,0.00,weatherlink.com 1.10,2013-03-16 05:03:00,
2013-03-16 01:18:00,56.1,41.0,30.01,NNE,17,4.0,13.0,57,0.00,,,0.00,weatherlink.com 1.10,2013-03-16 05:18:00,
2013-03-16 01:33:00,56.0,41.0,30.01,NW,313,4.0,14.0,57,0.00,,,0.00,weatherlink.com 1.10,2013-03-16 05:33:00,
2013-03-16 01:48:00,55.7,40.0,30.01,NW,321,2.0,13.0,57,0.00,,,0.00,weatherlink.com 1.10,2013-03-16 05:48:00,
2013-03-16 02:03:00,54.3,40.0,30.00,NW,319,2.0,7.0,60,0.00,,,0.00,weatherlink.com 1.10,2013-03-16 06:03:00,
2013-03-16 02:18:00,52.1,40.0,30.00,NW,316,1.0,6.0,64,0.00,,,0.00,weatherlink.com 1.10,2013-03-16 06:18:00,
2013-03-16 02:33:00,50.0,41.0,30.00,NW,316,2.0,6.0,70,0.00,,,0.00,weatherlink.com 1.10,2013-03-16 06:33:00,
2013-03-16 02:48:00,53.8,41.0,30.00,NW,314,3.0,10.0,62,0.00,,,0.00,weatherlink.com 1.10,2013-03-16 06:48:00,
2013-03-16 03:03:00,54.4,41.0,30.00,NW,324,4.0,9.0,60,0.00,,,0.00,weatherlink.com 1.10,2013-03-16 07:03:00,
2013-03-16 03:18:00,54.3,41.0,30.00,WNW,297,2.0,11.0,61,0.00,,,0.00,weatherlink.com 1.10,2013-03-16 07:18:00,
2013-03-16 03:33:00,54.5,41.0,29.99,WNW,287,12.0,15.0,60,0.00,,,0.00,weatherlink.com 1.10,2013-03-16 07:33:00,
2013-03-16 03:48:00,54.9,40.0,29.98,WNW,301,9.0,21.0,58,0.00,,,0.00,weatherlink.com 1.10,2013-03-16 07:48:00,
2013-03-16 04:03:00,55.3,40.0,29.97,NW,312,6.0,24.0,57,0.00,,,0.00,weatherlink.com 1.10,2013-03-16 08:03:00,
2013-03-16 04:18:00,55.5,40.0,29.97,WNW,293,8.0,20.0,56,0.00,,,0.00,weatherlink.com 1.10,2013-03-16 08:18:00,
2013-03-16 04:33:00,55.6,39.0,29.96,SW,236,4.0,22.0,55,0.00,,,0.00,weatherlink.com 1.10,2013-03-16 08:33:00,
2013-03-16 04:48:00,55.8,39.0,29.96,WNW,297,8.0,23.0,54,0.00,,,0.00,weatherlink.com 1.10,2013-03-16 08:48:00,
2013-03-16 05:03:00,55.7,39.0,29.96,North,6,4.0,22.0,54,0.00,,,0.00,weatherlink.com 1.10,2013-03-16 09:03:00,
2013-03-16 05:18:00,55.5,39.0,29.95,North,8,8.0,16.0,54,0.00,,,0.00,weatherlink.com 1.10,2013-03-16 09:18:00,
2013-03-16 05:33:00,55.7,39.0,29.96,NW,305,4.0,18.0,53,0.00,,,0.00,weatherlink.com 1.10,2013-03-16 09:33:00,
2013-03-16 05:48:00,55.8,39.0,29.95,WNW,287,6.0,21.0,53,0.00,,,0.00,weatherlink.com 1.10,2013-03-16 09:48:00,
2013-03-16 06:03:00,55.7,39.0,29.96,North,354,7.0,22.0,53,0.00,,,0.00,weatherlink.com 1.10,2013-03-16 10:03:00,
2013-03-16 06:18:00,55.5,39.0,29.97,NW,314,3.0,18.0,54,0.00,,,0.00,weatherlink.com 1.10,2013-03-16 10:18:00,
2013-03-16 06:33:00,55.0,38.0,29.97,NW,312,7.0,13.0,54,0.00,,,0.00,weatherlink.com 1.10,2013-03-16 10:33:00,
2013-03-16 06:48:00,54.3,39.0,29.97,WNW,298,0.0,10.0,56,0.00,,,0.00,weatherlink.com 1.10,2013-03-16 10:48:00,
2013-03-16 07:03:00,54.0,38.0,29.98,WNW,298,4.0,9.0,56,0.00,,,0.00,weatherlink.com 1.10,2013-03-16 11:03:00,
2013-03-16 07:18:00,54.4,39.0,29.97,WNW,297,6.0,14.0,56,0.00,,,0.00,weatherlink.com 1.10,2013-03-16 11:18:00,
2013-03-16 07:33:00,54.9,38.0,29.98,WNW,295,4.0,27.0,54,0.00,,,0.00,weatherlink.com 1.10,2013-03-16 11:33:00,
2013-03-16 07:48:00,55.0,38.0,29.97,North,1,7.0,16.0,54,0.00,,,0.00,weatherlink.com 1.10,2013-03-16 11:48:00,
2013-03-16 08:03:00,55.0,38.0,29.97,North,352,2.0,17.0,54,0.00,,,0.00,weatherlink.com 1.10,2013-03-16 12:03:00,
2013-03-16 08:18:00,54.7,39.0,29.97,North,353,4.0,9.0,56,0.00,,,0.00,weatherlink.com 1.10,2013-03-16 12:18:00,
2013-03-16 08:33:00,55.4,39.0,29.97,NNE,13,3.0,8.0,55,0.00,,,0.00,weatherlink.com 1.10,2013-03-16 12:33:00,
2013-03-16 08:48:00,56.3,40.0,29.96,NW,325,2.0,10.0,55,0.00,,,0.00,weatherlink.com 1.10,2013-03-16 12:48:00,
2013-03-16 09:03:00,57.2,40.0,29.96,ESE,117,1.0,14.0,54,0.00,,,0.00,weatherlink.com 1.10,2013-03-16 13:03:00,
2013-03-16 09:18:00,58.0,41.0,29.96,WNW,301,6.0,10.0,53,0.00,,,0.00,weatherlink.com 1.10,2013-03-16 13:18:00,
2013-03-16 09:33:00,58.0,41.0,29.96,NW,325,7.0,16.0,53,0.00,,,0.00,weatherlink.com 1.10,2013-03-16 13:33:00,
2013-03-16 09:48:00,58.4,41.0,29.96,West,265,1.0,12.0,52,0.00,,,0.00,weatherlink.com 1.10,2013-03-16 13:48:00,
2013-03-16 10:03:00,59.0,41.0,29.96,West,264,4.0,20.0,52,0.00,,,0.00,weatherlink.com 1.10,2013-03-16 14:03:00,
2013-03-16 10:18:00,59.7,41.0,29.96,SW,221,9.0,14.0,51,0.00,,,0.00,weatherlink.com 1.10,2013-03-16 14:18:00,
2013-03-16 10:33:00,60.4,42.0,29.95,NNW,328,4.0,12.0,52,0.00,,,0.00,weatherlink.com 1.10,2013-03-16 14:33:00,
2013-03-16 10:49:00,61.3,43.0,29.95,NW,316,3.0,15.0,51,0.00,,,0.00,weatherlink.com 1.10,2013-03-16 14:49:00,
2013-03-16 11:04:00,61.3,43.0,29.95,West,280,2.0,16.0,52,0.00,,,0.00,weatherlink.com 1.10,2013-03-16 15:04:00,
2013-03-16 11:19:00,61.2,43.0,29.94,NNW,328,4.0,17.0,52,0.00,,,0.00,weatherlink.com 1.10,2013-03-16 15:19:00,
2013-03-16 11:34:00,60.7,44.0,29.94,NW,308,5.0,13.0,55,0.00,,,0.00,weatherlink.com 1.10,2013-03-16 15:34:00,
2013-03-16 11:49:00,61.1,44.0,29.94,NW,321,5.0,14.0,54,0.00,,,0.00,weatherlink.com 1.10,2013-03-16 15:49:00,
2013-03-16 12:04:00,62.2,44.0,29.93,NNW,337,5.0,16.0,52,0.00,,,0.00,weatherlink.com 1.10,2013-03-16 16:04:00,
2013-03-16 12:19:00,62.9,44.0,29.93,West,281,1.0,13.0,50,0.00,,,0.00,weatherlink.com 1.10,2013-03-16 16:19:00,
2013-03-16 12:34:00,63.9,44.0,29.92,NNW,331,1.0,13.0,48,0.00,,,0.00,weatherlink.com 1.10,2013-03-16 16:34:00,
2013-03-16 12:49:00,64.3,44.0,29.91,NW,305,12.0,17.0,48,0.00,,,0.00,weatherlink.com 1.10,2013-03-16 16:49:00,
2013-03-16 13:04:00,65.5,43.0,29.91,ESE,111,1.0,11.0,45,0.00,,,0.00,weatherlink.com 1.10,2013-03-16 17:04:00,
2013-03-16 13:19:00,65.6,44.0,29.90,NW,321,3.0,12.0,45,0.00,,,0.00,weatherlink.com 1.10,2013-03-16 17:19:00,
2013-03-16 13:34:00,65.6,43.0,29.90,NW,323,1.0,9.0,44,0.00,,,0.00,weatherlink.com 1.10,2013-03-16 17:34:00,
2013-03-16 13:49:00,66.7,43.0,29.89,NNE,13,1.0,12.0,42,0.00,,,0.00,weatherlink.com 1.10,2013-03-16 17:49:00,
2013-03-16 14:04:00,67.1,43.0,29.88,ENE,65,6.0,15.0,42,0.00,,,0.00,weatherlink.com 1.10,2013-03-16 18:04:00,
2013-03-16 14:19:00,66.1,41.0,29.88,NW,325,6.0,21.0,40,0.00,,,0.00,weatherlink.com 1.10,2013-03-16 18:19:00,
2013-03-16 14:34:00,65.9,40.0,29.88,NW,321,14.0,29.0,39,0.00,,,0.00,weatherlink.com 1.10,2013-03-16 18:34:00,
2013-03-16 14:49:00,67.4,41.0,29.87,WNW,300,3.0,16.0,39,0.00,,,0.00,weatherlink.com 1.10,2013-03-16 18:49:00,
2013-03-16 15:04:00,68.1,42.0,29.86,WSW,245,5.0,12.0,39,0.00,,,0.00,weatherlink.com 1.10,2013-03-16 19:04:00,
2013-03-16 15:19:00,68.3,42.0,29.86,WNW,299,5.0,15.0,39,0.00,,,0.00,weatherlink.com 1.10,2013-03-16 19:19:00,
2013-03-16 15:34:00,69.3,42.0,29.85,NE,35,3.0,15.0,37,0.00,,,0.00,weatherlink.com 1.10,2013-03-16 19:34:00,
2013-03-16 15:49:00,69.3,42.0,29.85,NNE,27,4.0,15.0,37,0.00,,,0.00,weatherlink.com 1.10,2013-03-16 19:49:00,
2013-03-16 16:04:00,69.1,42.0,29.84,NW,321,13.0,19.0,38,0.00,,,0.00,weatherlink.com 1.10,2013-03-16 20:04:00,
2013-03-16 16:19:00,69.3,42.0,29.84,WNW,301,8.0,11.0,38,0.00,,,0.00,weatherlink.com 1.10,2013-03-16 20:19:00,
2013-03-16 16:34:00,69.6,43.0,29.85,NW,323,17.0,17.0,39,0.00,,,0.00,weatherlink.com 1.10,2013-03-16 20:34:00,
2013-03-16 16:49:00,68.8,43.0,29.85,WNW,287,4.0,17.0,39,0.00,,,0.00,weatherlink.com 1.10,2013-03-16 20:49:00,
2013-03-16 17:04:00,68.6,43.0,29.85,SW,229,1.0,19.0,39,0.00,,,0.00,weatherlink.com 1.10,2013-03-16 21:04:00,
2013-03-16 17:19:00,68.7,44.0,29.85,NE,46,1.0,15.0,41,0.00,,,0.00,weatherlink.com 1.10,2013-03-16 21:19:00,
2013-03-16 17:34:00,68.0,43.0,29.85,WNW,297,6.0,18.0,41,0.00,,,0.00,weatherlink.com 1.10,2013-03-16 21:34:00,
2013-03-16 17:49:00,68.1,43.0,29.86,WSW,242,2.0,11.0,41,0.00,,,0.00,weatherlink.com 1.10,2013-03-16 21:49:00,
2013-03-16 18:04:00,67.2,43.0,29.86,NW,308,9.0,12.0,42,0.00,,,0.00,weatherlink.com 1.10,2013-03-16 22:04:00,
2013-03-16 18:19:00,66.2,43.0,29.86,North,356,2.0,12.0,43,0.00,,,0.00,weatherlink.com 1.10,2013-03-16 22:19:00,
2013-03-16 18:34:00,65.5,43.0,29.86,NNW,338,4.0,13.0,45,0.00,,,0.00,weatherlink.com 1.10,2013-03-16 22:34:00,
2013-03-16 18:49:00,65.0,44.0,29.87,NW,313,6.0,15.0,46,0.00,,,0.00,weatherlink.com 1.10,2013-03-16 22:49:00,
2013-03-16 19:04:00,64.5,44.0,29.88,NNE,32,0.0,6.0,47,0.00,,,0.00,weatherlink.com 1.10,2013-03-16 23:04:00,
2013-03-16 19:19:00,64.1,44.0,29.88,NW,324,4.0,9.0,48,0.00,,,0.00,weatherlink.com 1.10,2013-03-16 23:19:00,
2013-03-16 19:34:00,63.5,44.0,29.88,NW,311,0.0,7.0,49,0.00,,,0.00,weatherlink.com 1.10,2013-03-16 23:34:00,
2013-03-16 19:49:00,63.2,44.0,29.89,NW,306,2.0,9.0,49,0.00,,,0.00,weatherlink.com 1.10,2013-03-16 23:49:00,
2013-03-16 20:04:00,62.5,43.0,29.90,NE,41,5.0,7.0,50,0.00,,,0.00,weatherlink.com 1.10,2013-03-17 00:04:00,
2013-03-16 20:19:00,62.1,43.0,29.91,NNE,23,3.0,12.0,50,0.00,,,0.00,weatherlink.com 1.10,2013-03-17 00:19:00,
2013-03-16 20:34:00,61.4,42.0,29.91,NNW,345,5.0,9.0,50,0.00,,,0.00,weatherlink.com 1.10,2013-03-17 00:34:00,
2013-03-16 20:49:00,61.5,43.0,29.92,South,184,4.0,13.0,50,0.00,,,0.00,weatherlink.com 1.10,2013-03-17 00:49:00,
2013-03-16 21:04:00,61.0,42.0,29.92,NE,35,1.0,8.0,50,0.00,,,0.00,weatherlink.com 1.10,2013-03-17 01:04:00,
2013-03-16 21:19:00,60.9,42.0,29.93,WNW,301,2.0,12.0,50,0.00,,,0.00,weatherlink.com 1.10,2013-03-17 01:19:00,
2013-03-16 21:34:00,60.4,42.0,29.93,NW,310,9.0,11.0,51,0.00,,,0.00,weatherlink.com 1.10,2013-03-17 01:34:00,
2013-03-16 21:49:00,60.2,42.0,29.93,West,262,2.0,10.0,51,0.00,,,0.00,weatherlink.com 1.10,2013-03-17 01:49:00,
2013-03-16 22:06:00,60.1,42.0,29.93,NW,315,4.0,13.0,51,0.00,,,0.00,weatherlink.com 1.10,2013-03-17 02:06:00,
2013-03-16 22:20:00,59.8,41.0,29.93,NNW,342,3.0,13.0,51,0.00,,,0.00,weatherlink.com 1.10,2013-03-17 02:20:00,
2013-03-16 22:35:00,59.6,41.0,29.95,NW,313,5.0,12.0,51,0.00,,,0.00,weatherlink.com 1.10,2013-03-17 02:35:00,
2013-03-16 22:50:00,57.7,41.0,29.95,WSW,239,0.0,4.0,55,0.00,,,0.00,weatherlink.com 1.10,2013-03-17 02:50:00,
2013-03-16 23:05:00,56.2,41.0,29.95,SSW,207,1.0,7.0,58,0.00,,,0.00,weatherlink.com 1.10,2013-03-17 03:05:00,
2013-03-16 23:20:00,54.6,41.0,29.95,NNE,13,3.0,4.0,61,0.00,,,0.00,weatherlink.com 1.10,2013-03-17 03:20:00,
2013-03-16 23:35:00,56.7,42.0,29.96,WSW,253,0.0,8.0,58,0.00,,,0.00,weatherlink.com 1.10,2013-03-17 03:35:00,
2013-03-16 23:50:00,57.3,42.0,29.95,West,267,4.0,9.0,56,0.00,,,0.00,weatherlink.com 1.10,2013-03-17 03:50:00,